Damascus, Syria

2:10 AM EEST on June 24, 2017 (GMT +0300)
Damascus International

Weather History for OSDI - December, 2013

Change the Weather History Date:

Thursday, December 5, 2013

  Actual Average Record
Temperature  
Mean Temperature 49 °F -  
Max Temperature 54 °F 57 °F 71 °F (2010)
Min Temperature 42 °F 34 °F 21 °F (1999)
Degree Days  
Heating Degree Days 16    
Moisture  
Dew Point 45 °F    
Average Humidity 87    
Maximum Humidity 95    
Minimum Humidity 76    
Precipitation  
Precipitation 0.08 in 0.03 in - ()
Sea Level Pressure  
Sea Level Pressure 29.91 in    
Wind  
Wind Speed 4 mph ()    
Max Wind Speed 14 mph    
Max Gust Speed -    
Visibility 4.7 miles    
Events Rain    
Averages and records for this station are not official NWS values.
T = Trace of Precipitation, MM = Missing Value Source: Averaged Metar Reports

Daily Weather History Graph

Daily Weather History Graph

Search for Another Location

Airport or City:

Trip Planner

Search our weather history database for the weather conditions in past years. The results will help you decide how hot, cold, wet, or windy it might be!

Date:

Astronomy

Dec. 05, 2013 Rise Set
Actual Time 6:23 AM EET 4:25 PM EET
Civil Twilight 5:55 AM EET 4:53 PM EET
Nautical Twilight 5:24 AM EET 5:24 PM EET
Astronomical Twilight 4:54 AM EET 5:54 PM EET
Moon 8:28 AM EET (12/5) 7:17 PM EET (12/5)
Length of Visible Light 10h 57m
Length of Day
10h 02m
Waxing Crescent, 8% of the Moon is Illuminated
Dec 5
Waxing Crescent
Dec 9
First Quarter
Dec 17
Full
Dec 25
Last Quarter
Jan 1
New

Hourly Weather History & Observations

Time (EET) Temp. Windchill Dew Point Humidity Pressure Visibility Wind Dir Wind Speed Gust Speed Precip Events Conditions
12:00 AM 46.4 °F 44.3 °F 42.8 °F 87% 29.95 in 3.1 mi ESE 4.6 mph - N/A   Mostly Cloudy
1:00 AM 46.4 °F 44.3 °F 41.0 °F 81% 29.92 in 3.1 mi East 4.6 mph - N/A   Mostly Cloudy
2:00 AM 47 °F - 45 °F 88% 29.89 in 3 mi Calm Calm - -   Mist
2:00 AM 46.4 °F - 42.8 °F 87% 29.92 in 3.1 mi Calm Calm - N/A   Mostly Cloudy
3:00 AM 46.4 °F 44.3 °F 42.8 °F 87% 29.92 in 3.1 mi NNE 4.6 mph - N/A   Mostly Cloudy
4:00 AM 46.4 °F - 41.0 °F 81% 29.89 in 3.1 mi Calm Calm - N/A   Mostly Cloudy
5:00 AM 46 °F - 44 °F 90% 29.88 in 3 mi NNW 2.2 mph - -   Mist
5:00 AM 44.6 °F 42.2 °F 41.0 °F 87% 29.89 in 3.1 mi NNW 4.6 mph - N/A   Mostly Cloudy
6:00 AM 44.6 °F - 41.0 °F 87% 29.89 in 3.1 mi Calm Calm - N/A Rain Rain
7:00 AM 46.4 °F 45.2 °F 42.8 °F 87% 29.92 in 3.1 mi South 3.5 mph - N/A Rain Rain
8:00 AM 47 °F - 46 °F 95% 29.90 in 3 mi Calm Calm - - Rain Light Rain
8:00 AM 46.4 °F 45.2 °F 44.6 °F 93% 29.92 in 3.1 mi SSE 3.5 mph - N/A   Mostly Cloudy
9:00 AM 46.4 °F 44.3 °F 44.6 °F 93% 29.95 in 3.1 mi NNE 4.6 mph - N/A   Mostly Cloudy
10:00 AM - - - N/A% 29.92 in 3.1 mi North 3.5 mph - N/A Rain Rain
11:00 AM 51 °F - 49 °F 91% 29.89 in 3 mi West 4.5 mph - -   Mist
11:00 AM 51.8 °F - 48.2 °F 88% 29.92 in 3.1 mi West 4.6 mph - N/A   Mostly Cloudy
12:00 PM 51.8 °F - 48.2 °F 88% 29.89 in 1.9 mi West 4.6 mph - N/A Rain Rain
1:00 PM 51.8 °F - 48.2 °F 88% 29.86 in 2.5 mi East 2.3 mph - N/A Rain Rain
2:00 PM 54 °F - 50 °F 83% 29.83 in 7 mi South 8.9 mph - - Rain Light Rain
2:00 PM 53.6 °F - 48.2 °F 82% 29.86 in 6.2 mi South 9.2 mph - N/A   Mostly Cloudy
3:00 PM 51.8 °F - 46.4 °F 82% 29.86 in 6.2 mi West 11.5 mph - N/A   Mostly Cloudy
4:00 PM 50.0 °F - 46.4 °F 87% 29.89 in 6.2 mi SW 6.9 mph - N/A   Scattered Clouds
5:00 PM 49 °F - 46 °F 85% 29.87 in 9 mi South 8.9 mph - -   Mostly Cloudy
5:00 PM 50.0 °F - 42.8 °F 76% 29.89 in 6.2 mi South 9.2 mph - N/A   Scattered Clouds
6:00 PM 48.2 °F - 44.6 °F 87% 29.89 in 6.2 mi SSW 11.5 mph - N/A   Partly Cloudy
7:00 PM 48.2 °F - 44.6 °F 87% 29.92 in 6.2 mi SW 13.8 mph - N/A   Partly Cloudy
8:00 PM 48 °F - 46 °F 90% 29.93 in 9 mi South 13.4 mph - -   Scattered Clouds
8:00 PM 48.2 °F - 44.6 °F 87% 29.95 in 6.2 mi South 13.8 mph - N/A   Partly Cloudy
9:00 PM 46.4 °F 41.9 °F 42.8 °F 87% 29.95 in 6.2 mi South 9.2 mph - N/A   Partly Cloudy
10:00 PM 44.6 °F 40.7 °F 42.8 °F 93% 29.98 in 6.2 mi SW 6.9 mph - N/A   Partly Cloudy
11:00 PM 45 °F - 43 °F 90% 29.95 in 9 mi SW 6.7 mph - -   Scattered Clouds
11:00 PM 42.8 °F 38.6 °F 41.0 °F 93% 29.98 in 6.2 mi SW 6.9 mph - N/A   Partly Cloudy